Simultaneous Nadir Overpasses (SNOs) Predictions

Prediction of SNOs between GOES-17 and NPP Satellite Orbit:

Table of predicted SNOs for the next 14.0 days since TLE Epoch: 12/10/2022
Index Date Time (GOES-17) GOES-17 Lat,Lon NPP Lat,Lon Distance(km) Time Diff (sec)
1 12/10/2022 10:25:24 0.02,-137.33 -0.46,-135.23 239.33 80
2 12/11/2022 22:47:22 -0.01,-137.31 -0.75,-140.53 367.29 80
3 12/12/2022 22:31:20 -0.00,-137.31 0.31,-136.01 147.93 80
4 12/14/2022 10:53:09 -0.00,-137.30 0.90,-141.28 453.60 80
5 12/15/2022 10:31:46 -0.01,-137.30 -0.16,-136.76 61.40 80
6 12/17/2022 22:35:01 0.01,-137.27 -0.04,-137.54 31.16 80
7 12/18/2022 22:18:58 0.01,-137.25 0.96,-133.01 483.48 80
8 12/20/2022 10:40:47 -0.00,-137.24 0.24,-138.28 119.08 80
9 12/21/2022 10:19:24 -0.00,-137.22 -0.76,-133.75 394.86 80
10 12/22/2022 22:44:02 -0.01,-137.17 -0.43,-139.06 214.43 80
11 12/23/2022 22:22:38 -0.00,-137.15 0.58,-134.53 298.87 80
